Вернуться в каталог

STARLINK-4589

АктивенСвязьVLEO
NORAD 53746·PAYLOAD·🇺🇸 United States

Запущен Sep 5, 2022 с Cape Canaveral Space Force Station

Loading…

Ближайшие Пролёты (ближайшие 24 часа)

TLE

СвежийSource: CelesTrak SupGP

Эпоха: Sep 14, 2026, 20:54 UTC

1 53746C 22107AY  26257.87131944 -.00043946  00000+0 -12986-2 0  2578
2 53746  53.1592 120.3862 0001291  83.7481 173.3585 15.34406037    14

Отслеживайте STARLINK-4589 в реальном времени с AllMySat

Download on the App Store